Cape Fear Coast Weather Center

Moon Phase Calendar



Online Cameras

 


      

Current Conditions in Sea Breeze
9/28/2021 9:50:24 PM

74°F
Feels Like 75
Clear
Humidity
85%
Pressure
29.97"
Wind
12.9 mph (SW)
Dew Point
69°F
UV Index
0/10 (Low)
Visibility
6 mi

Hourly Forecast

Date & Time Tue, Sep 28
9:00 PM
Tue, Sep 28
10:00 PM
Tue, Sep 28
11:00 PM
Wed, Sep 29
12:00 AM
Wed, Sep 29
1:00 AM
Wed, Sep 29
2:00 AM
Wed, Sep 29
3:00 AM
Wed, Sep 29
4:00 AM
Wed, Sep 29
5:00 AM
Wed, Sep 29
6:00 AM
Wed, Sep 29
7:00 AM
Wed, Sep 29
8:00 AM
Wed, Sep 29
9:00 AM
Wed, Sep 29
10:00 AM
Wed, Sep 29
11:00 AM
Wed, Sep 29
12:00 PM
Wed, Sep 29
1:00 PM
Wed, Sep 29
2:00 PM
Wed, Sep 29
3:00 PM
Wed, Sep 29
4:00 PM
Wed, Sep 29
5:00 PM
Wed, Sep 29
6:00 PM
Wed, Sep 29
7:00 PM
Wed, Sep 29
8:00 PM
Wed, Sep 29
9:00 PM
Wed, Sep 29
10:00 PM
Wed, Sep 29
11:00 PM
Thu, Sep 30
12:00 AM
Thu, Sep 30
1:00 AM
Thu, Sep 30
2:00 AM
Thu, Sep 30
3:00 AM
Thu, Sep 30
4:00 AM
Thu, Sep 30
5:00 AM
Thu, Sep 30
6:00 AM
Thu, Sep 30
7:00 AM
Thu, Sep 30
8:00 AM
Thu, Sep 30
9:00 AM
Thu, Sep 30
10:00 AM
Thu, Sep 30
11:00 AM
Thu, Sep 30
12:00 PM
Thu, Sep 30
1:00 PM
Thu, Sep 30
2:00 PM
Thu, Sep 30
3:00 PM
Thu, Sep 30
4:00 PM
Thu, Sep 30
5:00 PM
Thu, Sep 30
6:00 PM
Thu, Sep 30
7:00 PM
Thu, Sep 30
8:00 PM
Condition
Clear

Clear

Clear

Clear

Clear

Clear

Clear

Clear

Clear

Clear

Clear

Clear

Clear

Clear

Clear

Clear

Clear

Clear

Clear

Clear

Clear

Clear

Clear

Clear

Rain

Rain

Rain

Rain

Clouds

Rain

Rain

Clouds

Rain

Clouds

Clouds

Clouds

Clouds

Clouds

Clouds

Clouds

Clouds

Clouds

Clouds

Clouds

Clouds

Clouds

Clouds

Clouds
Temperature 74°F74°F74°F75°F75°F75°F74°F73°F73°F72°F71°F71°F73°F75°F78°F80°F81°F82°F81°F81°F81°F80°F78°F77°F76°F76°F75°F75°F75°F75°F74°F74°F74°F74°F73°F74°F75°F75°F76°F75°F75°F76°F76°F76°F76°F76°F76°F75°F
Feels Like 75°F75°F75°F75°F76°F75°F75°F74°F74°F73°F72°F72°F73°F76°F78°F80°F82°F83°F83°F83°F83°F83°F79°F78°F77°F77°F76°F76°F76°F76°F75°F75°F74°F74°F74°F74°F75°F76°F76°F75°F75°F76°F77°F77°F77°F76°F76°F76°F
Cloudiness 2%2%2%3%4%4%3%2%1%1%1%0%0%0%0%0%0%0%0%0%0%2%4%6%38%60%64%49%40%34%20%41%54%62%64%66%80%49%43%55%63%66%99%89%69%66%61%51%
Visibility 6 mi6 mi6 mi6 mi6 mi6 mi6 mi6 mi6 mi6 mi6 mi6 mi6 mi6 mi6 mi6 mi6 mi6 mi6 mi6 mi6 mi6 mi6 mi6 mi6 mi6 mi6 mi6 mi6 mi6 mi6 mi6 mi6 mi6 mi6 mi6 mi6 mi6 mi6 mi6 mi6 mi6 mi6 mi6 mi6 mi6 mi6 mi6 mi
Precipitation 0%0%0%0%0%0%0%0%0%0%0%0%0%0%0%0%0%0%0%0%1%1%1%9%34%47%62%63%68%77%55%51%51%55%55%47%14%14%14%13%20%20%29%30%26%25%22%22%
Humidity 82%85%82%81%79%79%79%79%78%79%81%80%74%66%59%55%53%55%58%59%60%65%70%72%75%78%81%81%79%80%80%78%78%77%76%74%71%68%67%68%69%67%68%67%68%70%72%72%
Dew Point 68°F69°F68°F68°F68°F68°F67°F66°F66°F65°F65°F65°F64°F63°F62°F62°F62°F63°F65°F65°F65°F67°F68°F67°F68°F68°F69°F68°F68°F68°F67°F67°F66°F66°F65°F65°F65°F64°F64°F64°F64°F64°F65°F65°F65°F65°F66°F66°F
Pressure 29.97"29.97"29.97"29.97"29.94"29.94"29.94"29.94"29.94"29.94"29.97"29.97"30"30"30"30"29.97"29.94"29.94"29.94"29.94"29.94"29.97"30"30"30.03"30.03"30.03"30.03"30.03"30.03"30.03"30.03"30.06"30.06"30.09"30.09"30.12"30.12"30.12"30.12"30.09"30.09"30.09"30.09"30.09"30.09"30.09"
Wind Speed 12.7 mph12.9 mph13 mph13.1 mph12.6 mph11.7 mph11.9 mph12.1 mph12.1 mph11.6 mph11.4 mph10.6 mph9.3 mph7.3 mph5.3 mph3.1 mph2.7 mph5.4 mph7.7 mph8.6 mph7.8 mph7.9 mph6.4 mph10.2 mph13.9 mph13.8 mph13.7 mph13.4 mph12.9 mph14.2 mph12.8 mph13.3 mph11.7 mph12.6 mph12.2 mph11.5 mph11.3 mph10.9 mph10.3 mph9.4 mph9.3 mph8.8 mph8.5 mph7.5 mph7.4 mph8.2 mph10 mph9.2 mph
Wind
Direction
230°
SW
229°
SW
230°
SW
233°
SW
241°
WSW
250°
WSW
257°
WSW
256°
WSW
259°
W
268°
W
269°
W
276°
W
282°
WNW
290°
WNW
298°
WNW
280°
W
212°
SSW
194°
SSW
191°
S
197°
SSW
196°
SSW
188°
S
161°
SSE
102°
ESE
104°
ESE
100°
E
94°
E
98°
E
106°
ESE
105°
ESE
97°
E
95°
E
90°
E
90°
E
93°
E
93°
E
94°
E
98°
E
98°
E
101°
E
103°
ESE
108°
ESE
117°
ESE
121°
ESE
120°
ESE
119°
ESE
120°
ESE
126°
SE

Daily Forecast

Date High Low Precip. Humidity
Today
Sep 28

Clear
81 °F
71 °F
0%
56%
Wednesday
Sep 29

Rain
82 °F
71 °F
62%
53%
Thursday
Sep 30

Rain
76 °F
73 °F
77%
69%
Friday
Oct 1

Rain
79 °F
75 °F
69%
66%
Saturday
Oct 2

Rain
77 °F
74 °F
78%
70%
Sunday
Oct 3

Rain
81 °F
75 °F
75%
66%
Monday
Oct 4

Rain
80 °F
76 °F
65%
68%
Tuesday
Oct 5

Rain
80 °F
75 °F
87%
75%
Wednesday
Oct 6

Rain
77 °F
74 °F
100%
86%
Thursday
Oct 7

Rain
79 °F
71 °F
34%
76%
Friday
Oct 8

Clear
78 °F
67 °F
3%
56%
Saturday
Oct 9

Clouds
75 °F
64 °F
0%
58%
Sunday
Oct 10

Rain
73 °F
69 °F
29%
65%
Monday
Oct 11

Clouds
75 °F
70 °F
0%
71%
Tuesday
Oct 12

Rain
72 °F
68 °F
97%
90%
Wednesday
Oct 13

Rain
76 °F
69 °F
34%
81%

Temperature 8-14 Day Outlook



Precipitation 8-14 Day Outlook




Quick Links
Cape Fear Coast News
Cape Fear Coast Photos
Cape Fear Coast Videos




About Us
Contact Us
Site Map
Search Site
Advertise With Us
   
CapeFearCoast.CoastalTown.com
THE CAPE FEAR COAST WEBSITE

Copyright 2021, Coastal Town
Privacy    |    Legal